Zurück zum Katalog

H-3 R/B

AktivGTO
NORAD 100271·ROCKET BODY·🇯🇵 Japan

Gestartet Aug 10, 2026 von Tanegashima Space Center

Loading…

TLE

AlterndSource: Space-Track

Epoche: Sep 14, 2026, 12:27 UTC

1 A0271U 26182B   26257.51912612  .00043788 -31604-6  10642-2 0  9994
2 A0271  22.5932 278.3162 7251288 200.2713 100.6605  2.36403740   830

Verfolge H-3 R/B in Echtzeit mit AllMySat

Download on the App Store